This demonstration page uses our WeatherBlox Daily Observations layout. Learn more.

Left ArrowRight Arrow

39.12711, -84.51439

Hourly Observations for September 11, 2022

Temp ( °F °C ) Dew Point ( °F °C ) Humidity (%) Winds ( mph kmh ) Pressure ( in mb ) Visibility ( mi km ) Precip ( " mm )
12:53 am 00:53 Mostly Clear 70 21.1 66 18.9 87 87 Calm 30.07 1018 10 16 0.00 0.00
1:53 am 01:53 Cloudy 69 20.6 67 19.4 93 93 Calm 30.07 1018 10 16 0.00 0.00
2:53 am 02:53 Mostly Cloudy 69 20.6 67 19.4 93 93 Calm 30.05 1018 10 16 0.00 0.00
3:53 am 03:53 Cloudy 69 20.6 66 18.9 90 90 Calm 30.04 1017 10 16 0.01 0.13
4:40 am 04:40 Cloudy 68 20 66 18.9 93 93 Calm 30.04 1017 10 16 0.00 0.00
4:53 am 04:53 Cloudy 68 20 66 18.9 93 93 Calm 30.03 1017 10 16 0.00 0.00
5:39 am 05:39 Cloudy 68 20 66 18.9 93 93 Calm 30.02 1017 10 16 0.00 0.00
5:53 am 05:53 Cloudy 68 20 66 18.9 93 93 Calm 30.01 1016 10 16 0.00 0.00
6:53 am 06:53 Cloudy 68 20 66 18.9 93 93 SSW 3 6 30.02 1017 10 16 0.00 0.00
7:53 am 07:53 Cloudy with Mist and Fog 68 20 67 19.4 96 96 Calm 30.03 1017 6 10 0.00 0.00
8:53 am 08:53 Cloudy 69 20.6 67 19.4 93 93 SSW 3 6 30.03 1017 7 11 0.00 0.00
9:53 am 09:53 Cloudy with Light Rain 69 20.6 68 20 96 96 S 3 6 30.02 1017 3 5 0.01 0.13
10:55 am 10:55 Cloudy with Light Rain 70 21.1 69 20.6 97 97 S 3 6 30.02 1016 2 3 0.01 0.25
11:02 am 11:02 Cloudy with Light Rain 70 21.1 69 20.6 97 97 S 5 7 30.02 1016 3 5 0.01 0.25
11:48 am 11:48 Cloudy with Mist and Fog 73 23 70 21 89 89 VRB 3 6 29.99 1016 6 10 0.01 0.25
11:53 am 11:53 Cloudy with Mist and Fog 73 22.8 70 21.1 90 90 Calm 30.00 1016 6 10 0.01 0.25
12:53 pm 12:53 Cloudy 74 23.3 70 21.1 87 87 VRB 5 7 29.98 1015 7 11 0.00 0.00
1:09 pm 13:09 Cloudy 74 23.3 70 21.1 87 87 S 3 6 29.97 1015 7 11 0.00 0.00
1:53 pm 13:53 Cloudy 75 23.9 69 20.6 82 82 S 7 11 29.96 1015 8 13 0.00 0.00
2:20 pm 14:20 Mostly Cloudy with Light Rain 77 25 71 21.7 82 82 SSE 6 9 29.93 1014 7 11 0.01 0.13
2:53 pm 14:53 Mostly Cloudy 78 25.6 71 21.7 79 79 S 7 11 29.92 1013 8 13 0.01 0.13
3:53 pm 15:53 Cloudy with Light Rain 78 25.6 71 21.7 79 79 S 8 13 29.89 1012 6 10 0.01 0.25
4:53 pm 16:53 Cloudy with Mist and Fog 79 26.1 72 22.2 79 79 SSW 6 9 29.86 1011 4 6 0.05 1.27
5:48 pm 17:48 Mostly Cloudy with Light Rain 75 24 70 21 83 83 S 10 17 29.85 1011 10 16 0.01 0.13
5:53 pm 17:53 Mostly Cloudy 76 24.4 69 20.6 79 79 S 9 15 29.86 1011 10 16 0.01 0.13
6:00 pm 18:00 Cloudy with Light Rain 76 24.4 70 21.1 82 82 S 8 13 29.85 1011 9 14 0.01 0.13
6:41 pm 18:41 Cloudy with Light Rain 74 23.3 71 21.7 91 91 WSW 7 11 29.86 1011 7 11 0.01 0.13
6:53 pm 18:53 Cloudy 75 23.9 71 21.7 88 88 SSW 12 19 29.86 1011 10 16 0.01 0.13
7:53 pm 19:53 Mostly Cloudy 73 22.8 68 20 84 84 SSW 8 13 29.86 1011 8 13 0.00 0.00
9:53 pm 21:53 Cloudy 73 22.8 68 20 84 84 W 3 6 29.90 1012 10 16 0.00 0.00
10:44 pm 22:44 Mostly Cloudy 71 21.7 67 19.4 87 87 WSW 7 11 29.90 1012 10 16 0.00 0.00
10:53 pm 22:53 Mostly Cloudy 70 21.1 67 19.4 90 90 WSW 6 9 29.90 1012 10 16 0.00 0.00
11:53 pm 23:53 Cloudy 69 20.6 66 18.9 90 90 SW 7 11 29.91 1013 10 16 0.00 0.00

Powered by AerisWeather